Вернуться в каталог

YAOGAN 7 DEB

АктивенВоенныеPO
NORAD 38266·DEBRIS·🇨🇳 China

Запущен Dec 9, 2009 с Jiuquan Satellite Launch Center

Loading…

Ближайшие Пролёты (ближайшие 24 часа)

TLE

СвежийSource: Space-Track

Эпоха: Sep 14, 2026, 07:28 UTC

1 38266U 09069C   26257.31132085  .00000691  00000-0  22803-3 0  9998
2 38266  97.9609 200.8379 0231602 218.9691 139.4604 14.26912021860050

Отслеживайте YAOGAN 7 DEB в реальном времени с AllMySat

Download on the App Store